Location: Caracas
(10.5033°N, 66.8422°W)
Time: 16:55:35
(UTC-04:00)

Vanguard 2 Rocket - All Passes

Search period start: 20 November 2017 00:00
Search period end: 30 November 2017 00:00
Orbit: 556 x 3326 km, 32.9° (Epoch: 19 November)

Date Brightness Start Highest point End Pass type
(mag) Time Alt. Az. Time Alt. Az. Time Alt. Az.
20 Nov - 00:34:02 10° WSW 00:54:38 76° NW 01:09:33 10° NE visible
20 Nov - 02:57:27 10° W 03:12:45 34° NNW 03:22:49 10° NE visible
20 Nov - 05:24:03 10° NW 05:30:43 17° N 05:35:40 10° NNE visible
20 Nov - 07:42:54 10° NNW 07:47:30 18° NNE 07:50:59 10° ENE daylight
20 Nov - 09:56:50 10° WNW 10:01:30 85° SSW 10:05:25 10° SE daylight
20 Nov - 19:10:32 10° SSE 19:14:08 11° SE 19:17:57 10° SE visible
20 Nov - 21:16:59 10° SSW 21:33:36 40° SE 21:51:04 10° E visible
20 Nov - 23:31:59 10° SW 23:52:34 87° SE 00:09:26 10° ENE visible
21 Nov - 01:52:57 10° W 02:11:13 46° NNW 02:23:37 10° NE visible
21 Nov - 04:19:31 10° WNW 04:29:38 22° NNW 04:36:41 10° NNE visible
21 Nov - 06:41:56 10° NNW 06:47:17 17° N 06:51:16 10° NE daylight
21 Nov - 08:56:59 10° NW 09:02:25 48° NNE 09:06:22 10° ESE daylight
21 Nov - 11:12:54 10° WSW 11:15:04 14° SW 11:17:13 10° S daylight
21 Nov - 20:17:51 10° SSW 20:31:34 28° SE 20:47:15 10° E visible
21 Nov - 22:30:49 10° SW 22:50:19 70° SE 23:08:38 10° ENE visible
22 Nov - 00:49:20 10° WSW 01:09:20 59° NNW 01:24:03 10° NE visible
22 Nov - 03:14:26 10° WNW 03:28:13 28° NNW 03:37:34 10° NE visible
22 Nov - 05:39:40 10° NW 05:46:40 18° N 05:51:42 10° NE visible
22 Nov - 07:56:49 10° NW 08:02:56 31° NNE 08:07:06 10° E daylight
22 Nov - 10:11:58 10° WNW 10:16:05 31° SW 10:19:37 10° SSE daylight
22 Nov - 19:19:56 10° S 19:29:42 18° SE 19:41:09 10° ESE visible
22 Nov - 21:30:28 10° SW 21:48:08 54° SE 22:07:00 10° ENE visible
22 Nov - 23:46:44 10° WSW 00:07:10 74° NNW 00:24:02 10° NE visible
23 Nov - 02:09:30 10° W 02:26:27 37° NNW 02:38:14 10° NE visible
23 Nov - 04:36:03 10° NW 04:45:36 21° N 04:52:14 10° NE visible
23 Nov - 06:56:05 10° NW 07:02:58 25° NNE 07:07:38 10° ENE daylight
23 Nov - 09:11:32 10° WNW 09:17:13 73° SW 09:21:15 10° SE daylight
23 Nov - 20:30:54 10° SSW 20:46:11 40° SE 21:04:13 10° ENE visible
23 Nov - 22:45:07 10° SW 23:04:49 89° SE 23:23:28 10° ENE visible
24 Nov - 01:05:17 10° W 01:24:21 47° NNW 01:38:35 10° NE visible
24 Nov - 03:31:25 10° WNW 03:44:04 25° NNW 03:52:46 10° NE visible
24 Nov - 05:54:27 10° NW 06:02:33 23° N 06:08:00 10° ENE visible
24 Nov - 08:11:04 10° NW 08:18:03 60° NNE 08:22:31 10° ESE daylight
24 Nov - 10:28:35 10° WSW 10:30:33 13° SW 10:32:24 10° SSW daylight
24 Nov - 19:32:13 10° SSW 19:44:34 28° SE 19:59:56 10° E visible
24 Nov - 21:44:23 10° SW 22:02:32 72° SE 22:22:13 10° ENE visible
25 Nov - 00:02:04 10° WSW 00:21:58 59° NNW 00:38:33 10° NE visible
25 Nov - 02:26:26 10° WNW 02:42:06 31° NNW 02:53:09 10° NE visible
25 Nov - 04:51:44 10° NW 05:01:37 23° N 05:08:18 10° NE visible
25 Nov - 07:10:15 10° NW 07:18:25 40° NNE 07:23:26 10° E daylight
25 Nov - 09:26:48 10° WNW 09:31:41 30° SW 09:35:23 10° SSE daylight
25 Nov - 18:34:53 10° S 18:43:13 17° SE 18:53:21 10° ESE visible
25 Nov - 20:44:28 10° SW 21:00:31 55° SE 21:20:05 10° ENE visible
25 Nov - 22:59:56 10° WSW 23:19:27 73° NNW 23:38:04 10° NE visible
26 Nov - 01:21:47 10° W 01:39:46 38° NNW 01:53:18 10° NE visible
26 Nov - 03:47:54 10° NW 04:00:08 25° N 04:08:28 10° NE visible
26 Nov - 06:08:52 10° NW 06:18:16 32° NNE 06:24:05 10° ENE visible
26 Nov - 08:25:44 10° WNW 08:32:47 67° SW 08:37:15 10° SE daylight
26 Nov - 19:45:18 10° SSW 19:58:58 40° SE 20:16:52 10° ENE visible
26 Nov - 21:58:46 10° SW 22:17:00 89° NW 22:37:00 10° NE visible
27 Nov - 00:18:00 10° W 00:37:09 47° NNW 00:53:09 10° NE visible
27 Nov - 02:43:19 10° WNW 02:58:07 29° N 03:08:32 10° NE visible
27 Nov - 05:06:40 10° NW 05:17:33 29° N 05:24:27 10° ENE visible
27 Nov - 07:24:36 10° NW 07:33:31 71° NNE 07:38:40 10° ESE daylight
27 Nov - 09:43:30 10° WSW 09:45:58 13° SW 09:48:07 10° SSW daylight
27 Nov - 18:47:01 10° S 18:57:48 27° SE 19:12:12 10° E visible
27 Nov - 20:58:28 10° SW 21:14:50 74° SE 21:35:16 10° ENE visible
27 Nov - 23:15:18 10° WSW 23:34:24 58° NNW 23:52:35 10° NE visible
28 Nov - 01:38:37 10° WNW 01:55:37 33° NNW 02:08:23 10° NE visible
28 Nov - 04:03:36 10° NW 04:16:15 28° N 04:24:33 10° ENE visible
28 Nov - 06:23:10 10° NW 06:33:41 49° NNE 06:39:42 10° E daylight
28 Nov - 08:41:03 10° WNW 08:47:08 31° SW 08:51:18 10° SSE daylight
28 Nov - 17:50:18 10° SSE 17:56:59 15° SE 18:05:14 10° ESE daylight
28 Nov - 19:58:55 10° SW 20:13:09 56° SE 20:32:42 10° ENE visible
28 Nov - 22:13:39 10° WSW 22:31:42 71° NNW 22:51:35 10° NE visible
29 Nov - 00:34:27 10° W 00:52:46 39° NNW 01:07:59 10° NE visible
29 Nov - 02:59:42 10° NW 03:14:19 29° N 03:24:23 10° NE visible
29 Nov - 05:21:12 10° NW 05:33:15 40° NNE 05:40:21 10° E visible
29 Nov - 07:39:21 10° WNW 07:48:10 63° SW 07:53:19 10° SE daylight
29 Nov - 19:00:08 10° SSW 19:12:02 40° SE 19:29:07 10° ENE visible
29 Nov - 21:12:55 10° WSW 21:29:18 87° NW 21:50:02 10° NE visible
